Montpelier, VT

1:29 PM EST on November 22, 2019 (GMT -0500)
Knapp State

Weather History for KMPV - August, 2019

Change the Weather History Date:

Sunday, August 11, 2019

  Actual Average Record
Temperature  
Mean Temperature 60 °F 66 °F  
Max Temperature 73 °F 77 °F 90 °F (2016)
Min Temperature 48 °F 55 °F 37 °F (1963)
Degree Days  
Heating Degree Days 4 2  
Month to date heating degree days 19 18  
Since 1 June heating degree days 172 179  
Since 1 July heating degree days 28 58  
Cooling Degree Days 0 3  
Month to date cooling degree days 15 33  
Year to date cooling degree days 173 201  
Since 1 June cooling degree days 172 191  
Growing Degree Days 10 (Base 50)    
Moisture  
Dew Point 52 °F    
Average Humidity 75    
Maximum Humidity 100    
Minimum Humidity 49    
Precipitation  
Precipitation 0.00 in 0.15 in 2.60 in (1998)
Month to date precipitation 1.94 1.66  
Year to date precipitation 32.49 22.45  
Sea Level Pressure  
Sea Level Pressure 29.98 in    
Wind  
Wind Speed 4 mph ()    
Max Wind Speed 14 mph    
Max Gust Speed 20 mph    
Visibility 9.8 miles    
Events      
T = Trace of Precipitation, MM = Missing Value Source: Averaged Metar Reports

Daily Weather History Graph

Daily Weather History Graph

Search for Another Location

Airport or City:

Astronomy

Aug. 11, 2019 Rise Set
Actual Time 5:48 AM EDT 8:01 PM EDT
Civil Twilight 5:16 AM EDT 8:33 PM EDT
Nautical Twilight 4:37 AM EDT 9:12 PM EDT
Astronomical Twilight 3:53 AM EDT 9:55 PM EDT
Moon 5:43 PM EDT (8/11) 2:02 AM EDT (8/11)
Length of Visible Light 15h 16m
Length of Day
14h 12m
Waxing Gibbous, 87% of the Moon is Illuminated
Aug 11
Waxing Gibbous
Aug 15
Full
Aug 23
Last Quarter
Aug 30
New
Sep 5
First Quarter

Hourly Weather History & Observations

Time (EDT) Temp. Dew Point Humidity Pressure Visibility Wind Dir Wind Speed Gust Speed Precip Events Conditions
12:51 AM 51.1 °F 50.0 °F 96% 29.94 in 10.0 mi Calm Calm - N/A   Partly Cloudy
1:51 AM 50.0 °F 48.9 °F 96% 29.94 in 10.0 mi South 3.5 mph - N/A   Clear
2:51 AM 50.0 °F 48.9 °F 96% 29.95 in 10.0 mi South 3.5 mph - N/A   Clear
3:51 AM 48.9 °F 48.0 °F 97% 29.95 in 10.0 mi Calm Calm - N/A   Partly Cloudy
4:51 AM 48.0 °F 46.9 °F 96% 29.96 in 10.0 mi Calm Calm - N/A   Clear
5:51 AM 53.1 °F 50.0 °F 89% 29.98 in 10.0 mi WSW 5.8 mph - N/A   Clear
6:32 AM 48.9 °F 48.0 °F 97% 29.99 in 4.0 mi ENE 4.6 mph - N/A   Scattered Clouds
6:51 AM 51.1 °F 50.0 °F 96% 30.01 in 10.0 mi Calm Calm - N/A   Partly Cloudy
7:51 AM 57.9 °F 54.0 °F 87% 30.01 in 10.0 mi Calm Calm - N/A   Clear
8:51 AM 62.1 °F 53.1 °F 72% 30.01 in 10.0 mi NW 4.6 mph - N/A   Partly Cloudy
9:51 AM 63.0 °F 52.0 °F 67% 30.00 in 10.0 mi WNW 9.2 mph - N/A   Partly Cloudy
10:51 AM 64.9 °F 53.1 °F 65% 30.00 in 10.0 mi Variable 5.8 mph - N/A   Mostly Cloudy
11:51 AM 66.0 °F 52.0 °F 60% 30.00 in 10.0 mi NW 9.2 mph - N/A   Mostly Cloudy
12:51 PM 66.9 °F 52.0 °F 59% 30.00 in 10.0 mi West 6.9 mph - N/A   Overcast
1:51 PM 70.0 °F 53.1 °F 55% 29.99 in 10.0 mi WNW 12.7 mph - N/A   Mostly Cloudy
2:51 PM 72.0 °F 53.1 °F 51% 29.97 in 10.0 mi NW 12.7 mph 17.3 mph N/A   Scattered Clouds
3:51 PM 72.0 °F 52.0 °F 49% 29.96 in 10.0 mi WNW 9.2 mph - N/A   Clear
4:51 PM 72.0 °F 52.0 °F 49% 29.97 in 10.0 mi WNW 9.2 mph - N/A   Clear
5:51 PM 70.0 °F 51.1 °F 51% 29.97 in 10.0 mi WNW 8.1 mph - N/A   Clear
6:51 PM 69.1 °F 53.1 °F 57% 29.97 in 10.0 mi WSW 3.5 mph - N/A   Clear
7:51 PM 64.0 °F 54.0 °F 70% 29.96 in 10.0 mi SSW 4.6 mph - N/A   Clear
8:51 PM 63.0 °F 53.1 °F 70% 29.97 in 10.0 mi SSE 5.8 mph - N/A   Clear
9:51 PM 60.1 °F 53.1 °F 78% 29.99 in 10.0 mi SW 4.6 mph - N/A   Clear
10:51 PM 60.1 °F 53.1 °F 78% 29.99 in 10.0 mi South 3.5 mph - N/A   Clear
11:51 PM 57.0 °F 53.1 °F 87% 29.98 in 10.0 mi South 5.8 mph - N/A   Clear